Elkins, WV

4:37 PM EDT on April 20, 2018 (GMT -0400)
Elkins-Randolph County

Weather History for KEKN - October, 2012

Change the Weather History Date:

Thursday, October 18, 2012

  Actual Average Record
Temperature  
Mean Temperature 57 °F 50 °F  
Max Temperature 68 °F 64 °F 86 °F (1938)
Min Temperature 46 °F 37 °F 22 °F (1976)
Degree Days  
Heating Degree Days 8 15  
Month to date heating degree days 228 214  
Since 1 July heating degree days 392 374  
Cooling Degree Days 0 0  
Month to date cooling degree days 9 0  
Year to date cooling degree days 675 471  
Growing Degree Days 8 (Base 50)    
Moisture  
Dew Point 45 °F    
Average Humidity 69    
Maximum Humidity 93    
Minimum Humidity 45    
Precipitation  
Precipitation 0.41 in 0.09 in 1.50 in (1915)
Month to date precipitation 1.46 1.64  
Year to date precipitation 39.01 38.08  
Snow  
Snow 0.00 in 0.00 in 1.00 in (1992)
Month to date snowfall 0.0 0.1  
Since 1 September snowfall 0.0 0.1  
Snow Depth 0.00 in    
Sea Level Pressure  
Sea Level Pressure 29.81 in    
Wind  
Wind Speed 9 mph (South)    
Max Wind Speed 23 mph    
Max Gust Speed 44 mph    
Visibility 8 miles    
Events Rain    
T = Trace of Precipitation, MM = Missing Value Source: NWS Daily Summary

Daily Weather History Graph

Daily Weather History Graph

Search for Another Location

Airport or City:

Astronomy

Oct. 18, 2012 Rise Set
Actual Time 7:32 AM EDT 6:36 PM EDT
Civil Twilight 7:05 AM EDT 7:02 PM EDT
Nautical Twilight 6:34 AM EDT 7:33 PM EDT
Astronomical Twilight 6:03 AM EDT 8:04 PM EDT
Moon 11:10 AM EDT (10/18) 9:10 PM EDT (10/18)
Length of Visible Light 11h 57m
Length of Day
11h 03m
Waxing Crescent, 14% of the Moon is Illuminated
Oct 18
Waxing Crescent
Oct 21
First Quarter
Oct 29
Full
Nov 6
Last Quarter
Nov 13
New

Hourly Weather History & Observations

Time (EDT) Temp. Dew Point Humidity Pressure Visibility Wind Dir Wind Speed Gust Speed Precip Events Conditions
12:51 AM 57.0 °F 41.0 °F 55% 29.81 in 10.0 mi South 13.8 mph 21.9 mph N/A   Clear
1:51 AM 57.0 °F 41.0 °F 55% 29.80 in 10.0 mi SSE 10.4 mph 23.0 mph N/A   Clear
2:51 AM 57.0 °F 41.0 °F 55% 29.78 in 10.0 mi SSE 13.8 mph 20.7 mph N/A   Clear
3:51 AM 55.9 °F 39.9 °F 55% 29.77 in 10.0 mi SSE 12.7 mph 18.4 mph N/A   Clear
4:51 AM 55.9 °F 39.9 °F 55% 29.78 in 10.0 mi South 13.8 mph - N/A   Clear
5:51 AM 55.9 °F 41.0 °F 57% 29.77 in 10.0 mi SSE 11.5 mph 19.6 mph N/A   Clear
6:51 AM 55.0 °F 41.0 °F 59% 29.79 in 10.0 mi SSE 11.5 mph - N/A   Clear
7:51 AM 55.9 °F 41.0 °F 57% 29.81 in 10.0 mi South 16.1 mph 26.5 mph N/A   Clear
8:51 AM 55.9 °F 42.1 °F 60% 29.84 in 10.0 mi South 5.8 mph - N/A   Clear
9:51 AM 57.9 °F 43.0 °F 58% 29.81 in 10.0 mi South 8.1 mph - N/A   Clear
10:51 AM 63.0 °F 44.1 °F 50% 29.76 in 10.0 mi South 8.1 mph 16.1 mph N/A   Clear
11:51 AM 64.0 °F 44.1 °F 48% 29.75 in 10.0 mi SSE 15.0 mph 21.9 mph N/A   Clear
12:51 PM 66.9 °F 45.0 °F 45% 29.76 in 10.0 mi SSW 10.4 mph 20.7 mph N/A   Partly Cloudy
1:51 PM 64.9 °F 46.0 °F 50% 29.77 in 10.0 mi SSW 15.0 mph 20.7 mph N/A   Overcast
2:51 PM 66.9 °F 46.9 °F 49% 29.73 in 10.0 mi SSE 12.7 mph 19.6 mph N/A   Partly Cloudy
3:51 PM 64.9 °F 46.9 °F 52% 29.70 in 10.0 mi SSE 17.3 mph 23.0 mph N/A   Partly Cloudy
4:51 PM 64.0 °F 46.9 °F 54% 29.72 in 10.0 mi SSE 15.0 mph 24.2 mph N/A   Clear
5:51 PM 55.0 °F 46.9 °F 74% 29.82 in 10.0 mi NW 6.9 mph - 0.00 in   Overcast
6:51 PM 51.1 °F 48.0 °F 89% 29.86 in 3.0 mi West 6.9 mph - 0.11 in Rain Heavy Rain
7:00 PM 50.0 °F 48.2 °F 94% 29.84 in 2.5 mi Calm Calm - 0.05 in Rain Heavy Rain
7:12 PM 50.0 °F 48.2 °F 94% 29.84 in 3.0 mi Calm Calm - 0.10 in Rain Heavy Rain
7:49 PM 50.0 °F 48.2 °F 94% 29.83 in 2.0 mi Calm Calm - 0.26 in Rain Heavy Rain
7:51 PM 50.0 °F 48.9 °F 96% 29.84 in 2.5 mi Calm Calm - 0.28 in Rain Heavy Rain
8:00 PM 51.8 °F 48.2 °F 88% 29.84 in 6.0 mi West 6.9 mph - 0.02 in Rain Light Rain
8:41 PM 51.8 °F 48.2 °F 88% 29.85 in 10.0 mi Calm Calm - 0.02 in   Overcast
8:51 PM 51.1 °F 48.9 °F 92% 29.86 in 10.0 mi Calm Calm - 0.02 in   Overcast
8:58 PM 51.8 °F 48.2 °F 88% 29.85 in 10.0 mi Calm Calm - N/A   Overcast
9:51 PM 51.1 °F 48.9 °F 92% 29.86 in 10.0 mi Calm Calm - N/A   Overcast
10:46 PM 48.2 °F 46.4 °F 93% 29.86 in 2.5 mi Calm Calm - N/A   Mostly Cloudy
10:51 PM 48.0 °F 46.9 °F 96% 29.86 in 2.0 mi Calm Calm - N/A   Mostly Cloudy
11:01 PM 48.2 °F 46.4 °F 93% 29.85 in 5.0 mi Calm Calm - N/A   Mostly Cloudy
11:14 PM 48.2 °F 46.4 °F 93% 29.84 in 2.5 mi Calm Calm - N/A   Scattered Clouds
11:21 PM 48.2 °F 46.4 °F 93% 29.84 in 7.0 mi Calm Calm - N/A   Partly Cloudy
11:51 PM 48.0 °F 46.0 °F 93% 29.85 in 10.0 mi Calm Calm - N/A   Clear